User: anonymous   Login
Location: Unspecified
(0.0000°N, 0.0000°E)
Time: 18:26:16
(UTC+00:00)
Language:

MTI - Orbit

View from above orbital plane
View from above orbital plane
View from above satellite
View from above satellite

Ground track
Ground track

The orbit data is extracted from the following two-line orbital elements,

1 26102U 00014A   17080.92927884 +.00003745 +00000-0 +78495-4 0  9997
2 26102 097.5658 248.1263 0007219 222.6141 261.2571 15.46080557941038
Epoch (UTC): 21 March 2017 22:18:09
Eccentricity: 0.0007219
inclination: 97.5658°
perigee height: 423 km
apogee height: 433 km
right ascension of ascending node: 248.1263°
argument of perigee: 222.6141°
revolutions per day: 15.46080557
mean anomaly at epoch: 261.2571°
orbit number at epoch: 94103

The dashed part of the orbit path shows where the satellite is in the earth's shadow,  

DLR